TimeAKST,TemperatureF,Dew PointF,Humidity,Sea Level PressureIn,VisibilityMPH,Wind Direction,Wind SpeedMPH,Gust SpeedMPH,PrecipitationIn,Events,Conditions,WindDirDegrees,DateUTC
12:16 AM,26.6,24.8,93,30.16,3.0,NNW,5.8,-,N/A,,Overcast,330,2013-11-22 09:16:00
12:36 AM,26.6,24.8,93,30.16,1.5,NNW,6.9,-,N/A,,Overcast,330,2013-11-22 09:36:00
12:56 AM,26.6,24.8,93,30.14,3.0,NNW,6.9,-,N/A,,Overcast,330,2013-11-22 09:56:00
1:16 AM,26.6,26.6,100,30.15,5.0,NW,4.6,-,N/A,,Overcast,320,2013-11-22 10:16:00
1:36 AM,26.6,26.6,100,30.15,5.0,NNW,5.8,-,N/A,,Overcast,330,2013-11-22 10:36:00
1:56 AM,26.6,26.6,100,30.15,5.0,NNW,6.9,-,N/A,,Overcast,330,2013-11-22 10:56:00
2:16 AM,28.4,26.6,93,30.14,10.0,NW,4.6,-,N/A,,Overcast,320,2013-11-22 11:16:00
2:36 AM,28.4,26.6,93,30.14,10.0,Calm,Calm,-,N/A,,Overcast,0,2013-11-22 11:36:00
2:56 AM,28.4,26.6,93,30.14,10.0,NNW,8.1,-,N/A,,Overcast,330,2013-11-22 11:56:00
3:16 AM,30.2,28.4,93,30.13,10.0,NNW,9.2,-,N/A,,Overcast,330,2013-11-22 12:16:00
3:36 AM,30.2,28.4,93,30.13,10.0,North,5.8,-,N/A,,Overcast,350,2013-11-22 12:36:00
3:56 AM,30.2,28.4,93,30.12,10.0,NW,3.5,-,N/A,,Overcast,320,2013-11-22 12:56:00
4:16 AM,30.2,28.4,93,30.12,10.0,NNW,4.6,-,N/A,,Overcast,330,2013-11-22 13:16:00
4:36 AM,30.2,28.4,93,30.11,10.0,NNW,6.9,-,N/A,,Overcast,340,2013-11-22 13:36:00
4:56 AM,30.2,28.4,93,30.11,10.0,NNW,5.8,-,N/A,,Overcast,330,2013-11-22 13:56:00
5:16 AM,30.2,30.2,100,30.11,10.0,NNW,5.8,-,N/A,,Overcast,330,2013-11-22 14:16:00
5:36 AM,30.2,30.2,100,30.10,10.0,NNW,5.8,-,N/A,,Overcast,340,2013-11-22 14:36:00
5:56 AM,30.2,30.2,100,30.10,10.0,NW,6.9,-,N/A,,Overcast,320,2013-11-22 14:56:00
6:16 AM,32.0,30.2,93,30.10,10.0,NNW,5.8,-,N/A,,Overcast,340,2013-11-22 15:16:00
6:36 AM,32.0,30.2,93,30.10,10.0,Calm,Calm,-,N/A,,Overcast,0,2013-11-22 15:36:00
6:56 AM,32.0,30.2,93,30.10,10.0,Calm,Calm,-,N/A,,Overcast,0,2013-11-22 15:56:00
7:16 AM,32.0,30.2,93,30.09,10.0,Calm,Calm,-,N/A,,Mostly Cloudy,0,2013-11-22 16:16:00
7:36 AM,32.0,30.2,93,30.09,10.0,Calm,Calm,-,N/A,,Overcast,0,2013-11-22 16:36:00
7:56 AM,32.0,30.2,93,30.08,10.0,Calm,Calm,-,N/A,,Overcast,0,2013-11-22 16:56:00
8:16 AM,32.0,30.2,93,30.07,10.0,Calm,Calm,-,N/A,,Overcast,0,2013-11-22 17:16:00
8:36 AM,33.8,32.0,93,30.07,10.0,Calm,Calm,-,N/A,,Overcast,0,2013-11-22 17:36:00
8:56 AM,33.8,32.0,93,30.07,10.0,Calm,Calm,-,N/A,,Overcast,0,2013-11-22 17:56:00
9:16 AM,33.8,32.0,93,30.06,10.0,Calm,Calm,-,N/A,,Overcast,0,2013-11-22 18:16:00
9:36 AM,39.2,37.4,93,30.04,10.0,SE,13.8,-,N/A,,Overcast,140,2013-11-22 18:36:00
9:56 AM,41.0,37.4,87,30.04,10.0,SE,12.7,-,N/A,,Overcast,130,2013-11-22 18:56:00
10:16 AM,42.8,37.4,81,30.04,10.0,SE,16.1,20.7,N/A,,Overcast,140,2013-11-22 19:16:00
10:36 AM,42.8,37.4,81,30.03,10.0,SE,16.1,21.9,N/A,,Overcast,140,2013-11-22 19:36:00
10:56 AM,42.8,37.4,81,30.02,10.0,SE,19.6,26.5,N/A,,Overcast,140,2013-11-22 19:56:00
11:16 AM,42.8,37.4,81,30.01,10.0,SE,21.9,29.9,N/A,,Overcast,140,2013-11-22 20:16:00
11:36 AM,42.8,37.4,81,30.00,10.0,SE,20.7,28.8,N/A,,Overcast,140,2013-11-22 20:36:00
11:56 AM,42.8,37.4,81,30.00,10.0,SE,19.6,28.8,N/A,,Overcast,140,2013-11-22 20:56:00
12:16 PM,42.8,37.4,81,29.99,10.0,SE,19.6,28.8,N/A,,Overcast,140,2013-11-22 21:16:00
12:36 PM,42.8,37.4,81,29.98,10.0,SE,19.6,28.8,N/A,,Overcast,140,2013-11-22 21:36:00
12:56 PM,42.8,37.4,81,29.97,10.0,SE,18.4,25.3,N/A,,Overcast,140,2013-11-22 21:56:00
1:16 PM,42.8,37.4,81,29.96,10.0,SE,18.4,26.5,N/A,,Overcast,140,2013-11-22 22:16:00
1:36 PM,42.8,37.4,81,29.96,10.0,SE,18.4,25.3,N/A,,Overcast,140,2013-11-22 22:36:00
1:56 PM,42.8,37.4,81,29.95,8.0,SE,21.9,29.9,N/A,,Overcast,130,2013-11-22 22:56:00
2:16 PM,42.8,37.4,81,29.95,8.0,SE,20.7,25.3,N/A,,Overcast,140,2013-11-22 23:16:00
2:36 PM,42.8,37.4,81,29.94,9.0,SE,21.9,33.4,N/A,,Overcast,130,2013-11-22 23:36:00
2:56 PM,41.0,37.4,87,29.93,10.0,SE,25.3,38.0,N/A,,Overcast,140,2013-11-22 23:56:00
3:16 PM,41.0,37.4,87,29.94,10.0,SE,28.8,34.5,N/A,,Overcast,130,2013-11-23 00:16:00
3:36 PM,41.0,35.6,81,29.94,10.0,SE,24.2,32.2,N/A,,Overcast,130,2013-11-23 00:36:00
3:56 PM,41.0,35.6,81,29.93,10.0,SE,24.2,34.5,N/A,,Overcast,130,2013-11-23 00:56:00
4:16 PM,41.0,35.6,81,29.93,10.0,SE,20.7,29.9,N/A,,Overcast,130,2013-11-23 01:16:00
4:36 PM,41.0,35.6,81,29.92,10.0,SE,20.7,29.9,N/A,,Overcast,130,2013-11-23 01:36:00
4:56 PM,41.0,35.6,81,29.91,10.0,SE,24.2,32.2,N/A,,Overcast,130,2013-11-23 01:56:00
5:16 PM,41.0,35.6,81,29.90,10.0,SE,26.5,34.5,N/A,,Overcast,130,2013-11-23 02:16:00
5:36 PM,41.0,35.6,81,29.89,10.0,SE,23.0,35.7,N/A,,Overcast,130,2013-11-23 02:36:00
5:56 PM,41.0,35.6,81,29.89,10.0,SE,24.2,34.5,N/A,,Overcast,140,2013-11-23 02:56:00
6:16 PM,41.0,35.6,81,29.88,10.0,SE,23.0,28.8,N/A,,Overcast,140,2013-11-23 03:16:00
6:36 PM,41.0,35.6,81,29.88,10.0,SE,19.6,32.2,N/A,,Overcast,140,2013-11-23 03:36:00
6:56 PM,41.0,35.6,81,29.87,10.0,SE,25.3,33.4,N/A,,Overcast,130,2013-11-23 03:56:00
7:16 PM,41.0,35.6,81,29.86,10.0,SE,20.7,29.9,N/A,,Overcast,130,2013-11-23 04:16:00
7:36 PM,39.2,35.6,87,29.86,10.0,SE,16.1,28.8,N/A,,Overcast,130,2013-11-23 04:36:00
7:56 PM,39.2,35.6,87,29.85,10.0,SE,20.7,26.5,N/A,,Overcast,130,2013-11-23 04:56:00
8:16 PM,39.2,35.6,87,29.85,10.0,SE,20.7,31.1,N/A,,Overcast,140,2013-11-23 05:16:00
8:36 PM,39.2,35.6,87,29.84,10.0,SE,18.4,21.9,N/A,,Overcast,130,2013-11-23 05:36:00
8:56 PM,39.2,35.6,87,29.83,10.0,SE,21.9,26.5,N/A,,Overcast,130,2013-11-23 05:56:00
9:16 PM,39.2,35.6,87,29.82,10.0,SE,18.4,25.3,N/A,,Overcast,130,2013-11-23 06:16:00
9:36 PM,39.2,35.6,87,29.81,10.0,SE,13.8,25.3,N/A,,Overcast,140,2013-11-23 06:36:00
9:56 PM,39.2,35.6,87,29.80,10.0,SE,18.4,24.2,N/A,,Overcast,130,2013-11-23 06:56:00
10:16 PM,39.2,35.6,87,29.79,10.0,SE,16.1,24.2,N/A,,Overcast,130,2013-11-23 07:16:00
10:36 PM,39.2,33.8,81,29.78,10.0,SE,13.8,26.5,N/A,,Overcast,130,2013-11-23 07:36:00
10:56 PM,39.2,35.6,87,29.78,10.0,SE,16.1,28.8,N/A,,Overcast,140,2013-11-23 07:56:00
11:16 PM,39.2,35.6,87,29.77,10.0,SE,18.4,26.5,N/A,,Overcast,140,2013-11-23 08:16:00
11:36 PM,39.2,35.6,87,29.77,10.0,SE,16.1,23.0,N/A,,Overcast,130,2013-11-23 08:36:00
11:56 PM,39.2,35.6,87,29.76,10.0,SE,13.8,23.0,N/A,,Overcast,140,2013-11-23 08:56:00